period_start,C,m1,H,J0,J1,J2,J3,J4,J5,JA,JB,JC,JD,JJ,JK,JN,#
2016-01-10 00:04:38,0.07,0.65,0.00,15.28,19.78,23.61,15.28,49.88,1034.44,2063.06,3257.67,3055.63,3370.91,599.87,622.60,9.63,0000 0000 0000 0000 000000
2016-01-10 00:09:39,0.06,0.66,0.00,15.30,19.79,23.63,15.28,49.89,1034.34,2063.03,3255.87,3054.86,3369.72,599.98,622.54,9.68,0000 0000 0000 0000 000000
2016-01-10 00:14:40,0.07,0.66,0.00,15.32,19.80,23.64,15.25,49.91,1034.28,2063.02,3254.13,3054.02,3368.52,599.75,622.19,9.73,0000 0000 0000 0000 000000
2016-01-10 00:19:41,0.07,0.67,0.00,15.34,19.82,23.67,15.28,49.90,1034.23,2063.01,3252.28,3053.16,3367.33,600.21,622.69,9.78,0000 0000 0000 0000 000000
2016-01-10 00:24:43,0.07,0.67,0.00,15.37,19.82,23.62,15.27,49.92,1034.21,2063.00,3250.41,3052.31,3366.07,599.99,622.38,9.83,0000 0000 0000 0000 000000
2016-01-10 00:29:44,0.07,0.67,0.00,15.40,19.84,23.72,15.22,49.81,1034.20,2063.00,3248.64,3051.59,3364.78,600.04,622.40,9.88,0000 0000 0000 0000 000000
2016-01-10 00:34:45,0.06,0.67,0.00,15.42,19.85,23.71,15.27,49.87,1034.20,2063.00,3246.93,3050.88,3363.60,599.88,622.21,9.93,0000 0000 0000 0000 000000
2016-01-10 00:39:47,0.06,0.68,0.00,15.42,19.87,23.74,15.26,49.87,1034.20,2063.00,3245.16,3050.07,3362.51,600.26,622.47,9.98,0000 0000 0000 0000 000000
2016-01-10 00:44:48,0.06,0.68,0.00,15.42,19.88,23.73,15.28,49.83,1034.20,2063.00,3243.59,3049.38,3361.40,599.95,622.27,10.03,0000 0000 0000 0000 000000
2016-01-10 00:49:49,0.05,0.68,0.00,15.43,19.89,23.74,15.19,49.89,1034.20,2062.99,3241.77,3048.77,3360.24,600.01,622.31,10.08,0000 0000 0000 0000 000000
2016-01-10 00:54:51,0.05,0.69,0.00,15.45,19.91,23.76,15.22,49.77,1034.19,2062.99,3240.19,3048.03,3359.15,600.00,622.27,10.13,0000 0000 0000 0000 000000
2016-01-10 00:59:52,0.07,0.69,0.00,15.49,19.92,23.78,15.24,49.77,1034.19,2062.98,3238.44,3047.24,3358.01,600.30,622.33,10.18,0000 0000 0000 0000 000000
2016-01-10 01:04:54,0.07,0.69,0.00,15.50,19.94,23.76,15.22,49.91,1034.19,2062.97,3236.69,3046.49,3356.84,600.16,622.32,10.23,0000 0000 0000 0000 000000
2016-01-10 01:09:55,0.07,0.70,0.00,15.51,19.95,23.81,15.29,49.95,1034.19,2062.97,3234.84,3045.74,3355.68,599.97,622.05,10.28,0000 0000 0000 0000 000000
2016-01-10 01:14:57,0.05,0.70,0.00,15.53,19.97,23.84,15.29,50.13,1034.19,2062.96,3233.13,3044.93,3354.46,600.05,622.07,10.33,0000 0000 0000 0000 000000
2016-01-10 01:19:58,0.06,0.71,0.00,15.57,19.98,23.85,15.17,49.90,1034.19,2062.92,3231.46,3044.10,3353.31,599.90,621.83,10.38,0000 0000 0000 0000 000000
2016-01-10 01:24:59,0.03,0.71,0.00,15.57,20.00,23.84,15.22,49.77,1034.18,2062.54,3229.59,3043.23,3351.98,600.17,622.05,10.43,0000 0000 0000 0000 000000
2016-01-10 01:30:01,0.07,0.71,0.00,15.59,20.02,23.90,15.27,50.02,1034.18,2062.29,3227.75,3042.42,3350.75,600.17,621.99,10.48,0000 0000 0000 0000 000000
2016-01-10 01:35:02,0.06,0.71,0.00,15.62,20.04,23.87,15.26,50.02,1034.15,2062.18,3225.92,3041.57,3349.53,600.31,622.14,10.53,0000 0000 0000 0000 000000
2016-01-10 01:40:03,0.08,0.72,0.00,15.63,20.05,23.87,15.24,49.93,1034.05,2062.08,3223.78,3040.46,3347.96,600.06,621.80,10.58,0000 0000 0000 0000 000000
2016-01-10 01:45:04,0.08,0.72,0.00,15.63,20.07,23.90,15.21,49.92,1033.90,2062.03,3221.64,3039.45,3346.48,600.03,621.66,10.63,0000 0000 0000 0000 000000
2016-01-10 01:50:05,0.08,0.72,0.00,15.66,20.09,23.93,15.25,50.00,1033.80,2062.02,3219.61,3038.32,3345.09,599.72,621.40,10.68,0000 0000 0000 0000 000000
2016-01-10 01:55:07,0.08,0.73,0.00,15.68,20.10,23.97,15.24,50.05,1033.74,2062.00,3217.50,3037.18,3343.60,600.02,621.51,10.73,0000 0000 0000 0000 000000
2016-01-10 02:00:08,0.08,0.73,0.00,15.68,20.12,23.99,15.29,49.85,1033.72,2062.00,3215.50,3036.12,3342.13,600.30,621.74,10.78,0000 0000 0000 0000 000000
2016-01-10 02:05:09,0.08,0.74,0.00,15.70,20.14,23.97,15.28,49.96,1033.75,2062.00,3213.54,3035.13,3340.72,600.42,621.81,10.83,0000 0000 0000 0000 000000
2016-01-10 02:10:11,0.07,0.74,0.00,15.72,20.16,23.98,15.23,50.02,1033.74,2062.00,3211.70,3034.13,3339.49,599.89,621.18,10.88,0000 0000 0000 0000 000000
2016-01-10 02:15:12,0.11,0.75,0.00,15.75,20.17,24.01,15.25,49.97,1033.77,2061.99,3209.26,3032.92,3337.93,600.23,621.54,10.93,0000 0000 0000 0000 000000
2016-01-10 02:20:13,0.15,0.75,0.00,15.76,20.19,24.05,15.35,50.06,1033.72,2061.99,3205.69,3031.01,3335.70,600.54,621.77,10.98,0000 0000 0000 0000 000000
2016-01-10 02:25:15,0.16,0.76,0.00,15.78,20.20,24.05,15.18,50.00,1033.72,2061.99,3202.16,3028.72,3333.13,599.88,621.04,11.03,0000 0000 0000 0000 000000
2016-01-10 02:30:16,0.13,0.77,0.00,15.81,20.22,24.08,15.10,49.93,1033.71,2061.99,3199.09,3026.71,3330.76,600.19,621.22,11.08,0000 0000 0000 0000 000000
2016-01-10 02:35:17,0.11,0.77,0.00,15.82,20.23,24.05,15.24,50.17,1033.72,2061.99,3196.60,3025.02,3328.74,600.10,621.16,11.13,0000 0000 0000 0000 000000
2016-01-10 02:40:18,0.11,0.78,0.00,15.86,20.24,24.12,15.23,50.25,1033.72,2061.99,3194.44,3023.34,3326.78,599.81,620.86,11.18,0000 0000 0000 0000 000000
2016-01-10 02:45:20,0.11,0.79,0.00,15.87,20.27,24.12,15.18,50.24,1033.72,2061.99,3192.34,3021.65,3324.76,600.08,621.14,11.23,0000 0000 0000 0000 000000
2016-01-10 02:50:21,0.12,0.79,0.00,15.90,20.28,24.13,15.23,50.33,1033.71,2061.98,3189.99,3019.98,3322.80,600.21,621.15,11.28,0000 0000 0000 0000 000000
2016-01-10 02:55:22,0.14,0.80,0.00,15.91,20.29,24.13,15.25,50.31,1033.71,2061.98,3187.05,3017.99,3320.38,600.03,620.95,11.33,0000 0000 0000 0000 000000
2016-01-10 03:00:24,0.15,0.81,0.00,15.94,20.32,24.11,15.24,50.21,1033.71,2061.99,3183.82,3015.82,3317.86,600.09,621.01,11.38,0000 0000 0000 0000 000000
2016-01-10 03:05:25,0.12,0.82,0.00,15.96,20.33,24.17,15.24,50.24,1033.71,2061.94,3181.03,3013.90,3315.48,599.94,620.69,11.43,0000 0000 0000 0000 000000
2016-01-10 03:10:27,0.12,0.82,0.00,15.97,20.35,24.13,15.20,50.32,1033.71,2061.68,3178.19,3011.78,3312.95,600.12,620.98,11.48,0000 0000 0000 0000 000000
2016-01-10 03:15:28,0.08,0.83,0.00,15.96,20.37,24.21,15.20,50.33,1033.71,2061.44,3175.74,3010.33,3311.19,599.97,620.77,11.53,0000 0000 0000 0000 000000
2016-01-10 03:20:29,0.07,0.83,0.00,16.00,20.39,24.28,15.26,50.25,1033.71,2061.16,3173.73,3009.07,3309.34,600.16,620.79,11.58,0000 0000 0000 0000 000000
2016-01-10 03:25:31,0.08,0.83,0.00,16.03,20.40,24.25,15.23,50.36,1033.71,2061.05,3171.86,3007.90,3307.68,600.20,620.95,11.63,0000 0000 0000 0000 000000
2016-01-10 03:30:32,0.08,0.84,0.00,16.02,20.42,24.27,15.29,50.30,1033.71,2061.02,3169.94,3006.77,3306.02,600.10,620.81,11.68,0000 0000 0000 0000 000000
2016-01-10 03:35:33,0.08,0.84,0.00,16.04,20.44,24.24,15.20,50.29,1033.68,2061.00,3167.92,3005.70,3304.60,599.98,620.61,11.73,0000 0000 0000 0000 000000
2016-01-10 03:40:34,0.08,0.85,0.00,16.06,20.46,24.29,15.23,50.19,1033.59,2061.00,3166.05,3004.64,3303.23,599.95,620.46,11.78,0000 0000 0000 0000 000000
2016-01-10 03:45:36,0.08,0.85,0.00,16.10,20.48,24.33,15.29,50.07,1033.38,2061.00,3164.26,3003.59,3301.82,600.30,620.75,11.84,0000 0000 0000 0000 000000
2016-01-10 03:50:37,0.07,0.85,0.00,16.10,20.50,24.37,15.23,50.04,1033.35,2061.00,3162.38,3002.58,3300.55,600.34,620.64,11.89,0000 0000 0000 0000 000000
2016-01-10 03:55:39,0.08,0.86,0.00,16.14,20.52,24.32,15.28,49.96,1033.34,2060.99,3160.58,3001.47,3299.15,600.20,620.35,11.94,0000 0000 0000 0000 000000
2016-01-10 04:00:40,0.07,0.86,0.00,16.16,20.54,24.35,15.19,50.04,1033.33,2060.99,3159.01,3000.43,3297.80,600.09,620.30,11.99,0000 0000 0000 0000 000000
2016-01-10 04:05:42,0.07,0.87,0.00,16.17,20.56,24.42,15.20,50.13,1033.35,2060.96,3157.37,2999.59,3296.56,600.08,620.24,12.04,0000 0000 0000 0000 000000
2016-01-10 04:10:43,0.07,0.87,0.00,16.20,20.58,24.44,15.13,50.11,1033.52,2060.83,3155.51,2998.42,3295.09,600.08,620.26,12.09,0000 0000 0000 0000 000000
2016-01-10 04:15:45,0.06,0.87,0.00,16.23,20.60,24.45,15.19,50.01,1033.52,2060.66,3153.75,2997.40,3293.72,599.78,619.80,12.14,0000 0000 0000 0000 000000
2016-01-10 04:20:46,0.04,0.88,0.00,16.24,20.62,24.45,15.31,50.10,1033.58,2060.41,3152.07,2996.53,3292.57,600.19,620.31,12.19,0000 0000 0000 0000 000000
2016-01-10 04:25:47,0.05,0.88,0.00,16.26,20.64,24.49,15.20,50.09,1033.71,2060.08,3150.37,2995.48,3291.14,599.81,619.97,12.24,0000 0000 0000 0000 000000
2016-01-10 04:30:48,0.06,0.88,0.00,16.31,20.66,24.48,15.22,50.11,1033.71,2060.02,3148.68,2994.59,3289.89,600.14,620.19,12.29,0000 0000 0000 0000 000000
2016-01-10 04:35:49,0.08,0.88,0.00,16.33,20.68,24.53,15.29,50.08,1033.70,2060.01,3146.99,2993.63,3288.67,600.09,620.13,12.34,0000 0000 0000 0000 000000
2016-01-10 04:40:50,0.06,0.89,0.00,16.35,20.71,24.55,15.24,50.12,1033.68,2060.00,3145.30,2992.78,3287.47,600.24,620.23,12.39,0000 0000 0000 0000 000000
2016-01-10 04:45:52,0.08,0.89,0.00,16.34,20.73,24.56,15.19,50.27,1033.67,2060.00,3143.49,2991.72,3286.08,599.94,619.91,12.44,0000 0000 0000 0000 000000
2016-01-10 04:50:53,0.09,0.90,0.00,16.37,20.75,24.60,15.13,50.15,1033.70,2060.00,3141.70,2990.60,3284.69,599.77,619.68,12.49,0000 0000 0000 0000 000000
2016-01-10 04:55:54,0.08,0.90,0.00,16.41,20.78,24.60,15.20,50.23,1033.71,2060.00,3139.90,2989.56,3283.38,600.11,619.98,12.54,0000 0000 0000 0000 000000
2016-01-10 05:00:55,0.08,0.91,0.00,16.43,20.79,24.61,15.06,50.18,1033.71,2059.98,3138.05,2988.42,3281.88,599.85,619.64,12.59,0000 0000 0000 0000 000000
2016-01-10 05:05:56,0.08,0.91,0.00,16.45,20.82,24.66,15.24,50.27,1033.71,2059.95,3136.03,2987.16,3280.36,600.19,619.93,12.64,0000 0000 0000 0000 000000
2016-01-10 05:10:58,0.08,0.91,0.00,16.50,20.85,24.64,15.11,50.27,1033.71,2059.90,3134.26,2985.81,3278.74,599.94,619.60,12.69,0000 0000 0000 0000 000000
2016-01-10 05:15:59,0.08,0.92,0.00,16.52,20.87,24.67,15.20,50.23,1033.71,2059.80,3132.29,2984.66,3277.21,599.93,619.53,12.74,0000 0000 0000 0000 000000
2016-01-10 05:21:00,0.05,0.92,0.00,16.52,20.89,24.70,15.19,50.26,1033.69,2059.52,3130.39,2983.53,3275.76,599.93,619.45,12.79,0000 0000 0000 0000 000000
2016-01-10 05:26:02,0.05,0.93,0.00,16.54,20.92,24.74,15.18,50.27,1033.71,2059.09,3128.51,2982.29,3274.17,599.87,619.43,12.84,0000 0000 0000 0000 000000
2016-01-10 05:31:03,0.08,0.93,0.00,16.56,20.94,24.74,15.22,50.34,1033.70,2059.03,3126.78,2981.16,3272.76,600.11,619.65,12.89,0000 0000 0000 0000 000000
2016-01-10 05:36:04,0.07,0.93,0.00,16.56,20.97,24.78,15.19,50.36,1033.70,2059.01,3124.99,2980.09,3271.45,599.77,619.31,12.94,0000 0000 0000 0000 000000
2016-01-10 05:41:05,0.07,0.94,0.00,16.59,20.99,24.81,15.22,50.42,1033.68,2059.00,3123.36,2979.07,3270.15,600.31,619.85,12.99,0000 0000 0000 0000 000000
2016-01-10 05:46:07,0.08,0.94,0.00,16.60,21.02,24.84,15.25,50.42,1033.64,2059.00,3121.71,2977.97,3268.77,600.33,619.74,13.04,0000 0000 0000 0000 000000
2016-01-10 05:51:08,0.07,0.95,0.00,16.64,21.04,24.84,15.19,50.42,1033.63,2059.00,3120.02,2976.90,3267.43,600.13,619.48,13.09,0000 0000 0000 0000 000000
2016-01-10 05:56:10,0.07,0.95,0.00,16.67,21.07,24.90,15.23,50.38,1033.62,2058.99,3118.47,2975.88,3266.07,600.29,619.56,13.14,0000 0000 0000 0000 000000
2016-01-10 06:01:11,0.09,0.95,0.00,16.67,21.09,24.91,15.20,50.52,1033.61,2058.98,3116.77,2974.73,3264.74,599.91,619.18,13.19,0000 0000 0000 0000 000000
2016-01-10 06:06:12,0.07,0.96,0.00,16.71,21.11,24.91,15.15,50.22,1033.59,2058.96,3115.14,2973.56,3263.42,599.97,619.14,13.24,0000 0000 0000 0000 000000
2016-01-10 06:11:13,0.06,0.96,0.00,16.73,21.14,24.99,15.24,50.19,1033.67,2058.86,3113.40,2972.44,3262.08,600.32,619.48,13.29,0000 0000 0000 0000 000000
2016-01-10 06:16:14,0.08,0.97,0.00,16.76,21.17,24.94,15.14,50.28,1033.69,2058.68,3111.31,2971.01,3260.51,599.99,618.95,13.34,0000 0000 0000 0000 000000
2016-01-10 06:21:16,0.06,0.97,0.00,16.77,21.19,24.99,15.19,50.36,1033.53,2058.29,3109.53,2969.56,3258.87,600.03,618.97,13.39,0000 0000 0000 0000 000000
2016-01-10 06:26:17,0.11,0.97,0.00,16.80,21.22,25.03,15.13,50.23,1033.40,2058.18,3107.35,2967.81,3256.94,599.71,618.52,13.44,0000 0000 0000 0000 000000
2016-01-10 06:31:18,0.07,0.98,0.00,16.84,21.24,25.03,15.18,50.22,1033.49,2058.03,3105.62,2966.47,3255.26,599.94,618.75,13.49,0000 0000 0000 0000 000000
2016-01-10 06:36:20,0.07,0.98,0.00,16.87,21.26,25.06,15.19,50.19,1033.35,2058.01,3104.07,2965.43,3253.92,599.99,618.60,13.54,0000 0000 0000 0000 000000
2016-01-10 06:41:21,0.08,0.99,0.00,16.89,21.28,25.04,15.14,50.13,1033.30,2058.00,3102.48,2964.46,3252.71,599.95,618.51,13.59,0000 0000 0000 0000 000000
2016-01-10 06:46:22,0.08,0.99,0.00,16.89,21.30,25.07,15.19,50.25,1033.34,2057.99,3100.89,2963.36,3251.36,600.23,618.91,13.64,0000 0000 0000 0000 000000
2016-01-10 06:51:23,0.08,0.99,0.00,16.92,21.33,25.10,15.19,50.33,1033.37,2057.97,3099.25,2962.14,3249.85,600.21,618.68,13.69,0000 0000 0000 0000 000000
2016-01-10 06:56:24,0.09,1.00,0.00,16.93,21.35,25.16,15.15,50.16,1033.28,2057.98,3097.53,2960.94,3248.46,600.16,618.48,13.74,0000 0000 0000 0000 000000
2016-01-10 07:01:26,0.07,1.00,0.00,16.97,21.38,25.22,15.15,50.37,1033.23,2057.98,3095.53,2959.91,3247.26,599.62,618.01,13.79,0000 0000 0000 0000 000000
2016-01-10 07:06:27,0.05,1.01,0.00,16.99,21.40,25.25,15.15,50.61,1033.20,2057.97,3094.32,2959.05,3246.43,599.86,618.23,13.84,0000 0000 0000 0000 000000
2016-01-10 07:11:29,0.06,1.01,0.00,17.02,21.42,25.23,15.25,50.59,1033.07,2057.96,3093.37,2958.17,3245.55,600.18,618.41,13.89,0000 0000 0000 0000 000000
2016-01-10 07:16:30,0.03,1.01,0.00,17.03,21.44,25.21,15.09,50.53,1033.11,2057.84,3092.61,2957.45,3244.82,599.80,617.96,13.94,0000 0000 0000 0000 000000
2016-01-10 07:21:31,0.01,1.01,0.00,17.06,21.45,25.24,15.15,50.60,1033.07,2057.71,3091.93,2956.91,3244.03,600.19,618.41,14.00,0000 0000 0000 0000 000000
2016-01-10 07:26:32,0.04,1.01,0.00,17.09,21.47,25.27,15.09,50.73,1033.11,2057.49,3091.08,2956.08,3243.18,600.06,618.09,14.05,0000 0000 0000 0000 000000
2016-01-10 07:31:33,0.02,1.01,0.00,17.11,21.48,25.32,15.16,50.72,1033.00,2057.21,3090.38,2955.43,3242.47,600.11,618.05,14.10,0000 0000 0000 0000 000000
2016-01-10 07:36:34,0.01,1.02,0.00,17.11,21.49,25.29,15.24,50.82,1032.80,2057.09,3089.80,2954.97,3241.86,600.49,618.29,14.15,0000 0000 0000 0000 000000
2016-01-10 07:41:36,0.05,1.02,0.00,17.12,21.52,25.32,15.12,50.76,1032.79,2057.15,3089.04,2954.24,3241.07,600.22,617.99,14.20,0000 0000 0000 0000 000000
2016-01-10 07:46:37,0.03,1.02,0.00,17.14,21.52,25.34,15.07,50.80,1032.76,2057.06,3088.37,2953.81,3240.52,599.62,617.35,14.25,0000 0000 0000 0000 000000
2016-01-10 07:51:39,0.02,1.02,0.00,17.13,21.54,25.33,15.15,50.56,1032.74,2057.02,3087.85,2953.04,3239.86,599.85,617.61,14.30,0000 0000 0000 0000 000000
2016-01-10 07:56:40,0.04,1.02,0.00,17.16,21.55,25.40,15.11,50.52,1032.77,2057.01,3087.05,2952.43,3239.05,599.82,617.46,14.35,0000 0000 0000 0000 000000
2016-01-10 08:01:41,0.03,1.03,0.00,17.17,21.57,25.40,15.12,50.52,1032.75,2057.00,3086.46,2951.98,3238.38,599.81,617.46,14.40,0000 0000 0000 0000 000000
2016-01-10 08:06:43,0.04,1.03,0.00,17.19,21.57,25.40,15.13,50.64,1032.77,2057.00,3085.80,2951.19,3237.67,599.94,617.55,14.45,0000 0000 0000 0000 000000
2016-01-10 08:11:44,0.04,1.03,0.00,17.19,21.59,25.37,15.12,50.69,1032.78,2057.00,3084.95,2950.41,3236.89,599.97,617.51,14.50,0000 0000 0000 0000 000000
2016-01-10 08:16:45,0.05,1.03,0.00,17.24,21.60,25.37,15.24,50.76,1032.75,2057.00,3084.02,2949.74,3235.97,600.21,617.60,14.55,0000 0000 0000 0000 000000
2016-01-10 08:21:46,0.05,1.04,0.00,17.27,21.62,25.43,15.14,50.64,1032.74,2056.99,3083.02,2948.92,3235.03,599.87,617.22,14.60,0000 0000 0000 0000 000000
2016-01-10 08:26:48,0.05,1.04,0.00,17.28,21.63,25.44,15.14,50.54,1032.74,2056.99,3082.04,2948.10,3234.14,600.08,617.50,14.65,0000 0000 0000 0000 000000
2016-01-10 08:31:49,0.05,1.04,0.00,17.29,21.64,25.39,15.16,50.52,1032.74,2056.97,3081.09,2947.33,3233.25,600.30,617.71,14.70,0000 0000 0000 0000 000000
2016-01-10 08:36:51,0.05,1.04,0.00,17.32,21.67,25.45,15.14,50.60,1032.74,2056.98,3080.18,2946.63,3232.44,599.96,617.41,14.75,0000 0000 0000 0000 000000
2016-01-10 08:41:52,0.05,1.05,0.00,17.32,21.69,25.46,15.04,50.58,1032.73,2056.97,3079.03,2945.77,3231.50,599.97,617.29,14.80,0000 0000 0000 0000 000000
2016-01-10 08:46:53,0.05,1.05,0.00,17.34,21.70,25.48,15.22,50.48,1032.73,2056.95,3078.00,2944.91,3230.50,600.22,617.53,14.85,0000 0000 0000 0000 000000
2016-01-10 08:51:54,0.05,1.05,0.00,17.36,21.72,25.49,15.08,50.54,1032.73,2056.89,3077.01,2944.07,3229.49,599.85,617.07,14.90,0000 0000 0000 0000 000000
2016-01-10 08:56:55,0.05,1.05,0.00,17.36,21.73,25.50,15.14,50.52,1032.73,2056.83,3075.80,2943.30,3228.51,599.88,617.13,14.95,0000 0000 0000 0000 000000
2016-01-10 09:01:57,0.02,1.06,0.00,17.38,21.74,25.53,15.07,50.54,1032.73,2056.49,3074.64,2942.27,3227.40,599.69,616.87,15.00,0000 0000 0000 0000 000000
2016-01-10 09:06:58,0.04,1.06,0.00,17.39,21.77,25.54,15.10,50.59,1032.73,2056.16,3073.66,2941.55,3226.52,599.93,617.09,15.05,0000 0000 0000 0000 000000
2016-01-10 09:12:00,0.03,1.06,0.00,17.42,21.78,25.55,15.09,50.52,1032.73,2056.06,3072.62,2940.82,3225.67,600.08,617.00,15.10,0000 0000 0000 0000 000000
2016-01-10 09:17:01,0.06,1.06,0.00,17.47,21.79,25.60,15.21,50.55,1032.73,2056.07,3071.58,2939.91,3224.72,600.26,617.15,15.15,0000 0000 0000 0000 000000
2016-01-10 09:22:02,0.05,1.07,0.00,17.48,21.81,25.60,15.15,50.59,1032.73,2056.04,3070.56,2939.04,3223.68,600.13,617.12,15.20,0000 0000 0000 0000 000000
2016-01-10 09:27:03,0.05,1.07,0.00,17.51,21.82,25.61,15.11,50.61,1032.72,2056.02,3069.61,2938.20,3222.79,600.03,616.96,15.25,0000 0000 0000 0000 000000
2016-01-10 09:32:05,0.06,1.07,0.00,17.53,21.84,25.63,15.08,50.57,1032.72,2056.02,3068.55,2937.48,3221.87,599.90,616.89,15.30,0000 0000 0000 0000 000000
2016-01-10 09:37:06,0.06,1.07,0.00,17.53,21.86,25.65,15.02,50.62,1032.70,2056.00,3067.47,2936.62,3220.88,599.63,616.55,15.35,0000 0000 0000 0000 000000
2016-01-10 09:42:08,0.03,1.08,0.00,17.54,21.88,25.68,15.01,50.45,1032.73,2056.00,3066.41,2936.01,3220.05,599.79,616.64,15.40,0000 0000 0000 0000 000000
2016-01-10 09:47:09,0.05,1.08,0.00,17.55,21.89,25.73,15.11,50.54,1032.73,2056.00,3065.49,2935.56,3219.45,600.10,616.90,15.45,0000 0000 0000 0000 000000
2016-01-10 09:52:10,0.05,1.08,0.00,17.58,21.91,25.70,15.12,50.63,1032.64,2055.99,3064.44,2934.74,3218.46,600.05,616.84,15.50,0000 0000 0000 0000 000000
2016-01-10 09:57:12,0.07,1.09,0.00,17.62,21.93,25.71,15.06,50.52,1032.58,2055.98,3062.95,2933.63,3217.34,600.00,616.59,15.55,0000 0000 0000 0000 000000
2016-01-10 10:02:13,0.04,1.09,0.00,17.63,21.94,25.76,15.05,50.54,1032.54,2055.95,3061.66,2932.86,3216.26,599.81,616.34,15.60,0000 0000 0000 0000 000000
2016-01-10 10:07:14,-0.00,1.09,0.00,17.66,21.97,25.76,15.15,50.92,1032.49,2055.90,3061.05,2932.47,3215.75,600.05,616.55,15.65,0000 0000 0000 0000 000000
2016-01-10 10:12:15,0.03,1.09,0.00,17.66,21.98,25.79,15.18,50.84,1032.59,2055.71,3060.54,2932.15,3215.28,600.05,616.59,15.70,0000 0000 0000 0000 000000
2016-01-10 10:17:16,0.02,1.09,0.00,17.68,21.99,25.78,15.09,50.77,1032.63,2055.39,3059.59,2931.38,3214.42,600.04,616.54,15.75,0000 0000 0000 0000 000000
2016-01-10 10:22:17,0.04,1.09,0.00,17.69,22.02,25.75,15.13,50.48,1032.71,2055.18,3058.53,2930.74,3213.54,600.16,616.61,15.80,0000 0000 0000 0000 000000
2016-01-10 10:27:18,0.04,1.10,0.00,17.71,22.03,25.82,15.11,50.27,1032.73,2055.06,3057.50,2929.92,3212.59,599.84,616.32,15.85,0000 0000 0000 0000 000000
2016-01-10 10:32:20,0.05,1.10,0.00,17.72,22.05,25.89,15.03,50.35,1032.71,2055.02,3056.36,2929.05,3211.70,599.88,616.37,15.90,0000 0000 0000 0000 000000
2016-01-10 10:37:21,0.06,1.10,0.00,17.75,22.07,25.85,15.06,50.34,1032.65,2055.01,3055.11,2928.12,3210.58,600.12,616.44,15.95,0000 0000 0000 0000 000000
2016-01-10 10:42:23,0.07,1.11,0.00,17.76,22.09,25.88,15.03,50.65,1032.58,2055.00,3053.64,2927.14,3209.37,599.83,616.28,16.00,0000 0000 0000 0000 000000
2016-01-10 10:47:24,0.06,1.11,0.00,17.77,22.10,25.91,15.04,50.67,1032.31,2055.00,3052.60,2926.19,3208.44,599.71,615.83,16.05,0000 0000 0000 0000 000000
2016-01-10 10:52:25,0.05,1.11,0.00,17.79,22.12,25.92,15.14,50.59,1032.24,2055.00,3051.57,2925.57,3207.58,600.16,616.12,16.10,0000 0000 0000 0000 000000
2016-01-10 10:57:26,0.04,1.11,0.00,17.81,22.14,25.93,15.15,50.58,1032.25,2055.00,3050.55,2924.88,3206.73,599.91,615.94,16.15,0000 0000 0000 0000 000000
2016-01-10 11:02:27,0.05,1.12,0.00,17.82,22.16,25.96,14.98,50.30,1032.26,2054.99,3049.49,2924.04,3205.78,599.80,615.82,16.20,0000 0000 0000 0000 000000
2016-01-10 11:07:29,0.05,1.12,0.00,17.83,22.18,26.00,14.97,50.32,1032.24,2054.98,3048.44,2923.22,3204.95,599.73,615.67,16.25,0000 0000 0000 0000 000000
2016-01-10 11:12:30,0.05,1.12,0.00,17.86,22.20,26.00,15.11,50.63,1032.24,2054.98,3047.47,2922.53,3204.08,599.94,615.85,16.31,0000 0000 0000 0000 000000
2016-01-10 11:17:32,0.04,1.13,0.00,17.88,22.22,26.00,15.13,50.61,1032.24,2054.96,3046.47,2921.91,3203.21,600.17,616.02,16.36,0000 0000 0000 0000 000000
2016-01-10 11:22:33,0.03,1.13,0.00,17.90,22.23,26.03,15.06,50.48,1032.24,2054.77,3045.34,2921.07,3202.34,600.02,615.82,16.41,0000 0000 0000 0000 000000
2016-01-10 11:27:35,0.02,1.13,0.00,17.92,22.24,26.00,15.07,50.62,1032.24,2054.35,3044.27,2920.25,3201.36,600.11,615.83,16.46,0000 0000 0000 0000 000000
2016-01-10 11:32:36,0.03,1.13,0.00,17.96,22.27,26.07,15.04,50.50,1032.24,2054.16,3043.26,2919.70,3200.68,600.12,615.92,16.51,0000 0000 0000 0000 000000
2016-01-10 11:37:37,0.03,1.13,0.00,17.98,22.29,26.10,15.08,50.54,1032.24,2054.07,3042.42,2918.99,3199.80,599.90,615.59,16.56,0000 0000 0000 0000 000000
2016-01-10 11:42:39,0.05,1.13,0.00,18.00,22.31,26.11,15.16,50.38,1032.24,2054.03,3041.46,2918.14,3199.01,599.92,615.49,16.61,0000 0000 0000 0000 000000
2016-01-10 11:47:41,0.05,1.14,0.00,18.00,22.33,26.11,14.98,50.42,1032.23,2054.00,3040.58,2917.44,3198.15,599.81,615.13,16.66,0000 0000 0000 0000 000000
2016-01-10 11:52:42,0.06,1.14,0.00,18.04,22.35,26.14,15.05,50.38,1032.23,2054.00,3039.32,2916.48,3197.17,599.82,615.31,16.71,0000 0000 0000 0000 000000
2016-01-10 11:57:43,0.05,1.14,0.00,18.03,22.37,26.18,15.17,50.29,1032.24,2053.99,3038.05,2915.65,3196.13,600.18,615.71,16.76,0000 0000 0000 0000 000000
2016-01-10 12:02:45,0.07,1.15,0.00,18.04,22.39,26.20,15.11,50.32,1032.21,2053.99,3036.68,2914.78,3195.04,600.21,615.65,16.81,0000 0000 0000 0000 000000
2016-01-10 12:07:46,0.19,1.15,0.00,18.05,22.41,26.21,15.03,50.37,1032.14,2053.98,3033.71,2912.67,3192.73,600.11,615.56,16.86,0000 0000 0000 0000 000000
2016-01-10 12:12:47,0.20,1.16,0.00,18.07,22.42,26.24,14.96,50.33,1032.19,2053.98,3029.47,2909.65,3189.48,599.83,615.30,16.91,0000 0000 0000 0000 000000
2016-01-10 12:17:48,0.12,1.17,0.00,18.12,22.44,26.23,15.09,50.20,1032.24,2053.90,3026.69,2907.67,3187.40,600.04,615.42,16.96,0000 0000 0000 0000 000000
2016-01-10 12:22:50,0.04,1.18,0.00,18.14,22.46,26.29,15.14,50.24,1032.24,2053.70,3025.21,2906.64,3186.04,600.11,615.40,17.01,0000 0000 0000 0000 000000
2016-01-10 12:27:51,0.04,1.18,0.00,18.14,22.47,26.29,15.02,50.25,1032.04,2053.41,3023.90,2905.63,3184.94,599.85,614.98,17.06,0000 0000 0000 0000 000000
2016-01-10 12:32:52,0.05,1.18,0.00,18.14,22.49,26.26,15.01,50.23,1031.77,2053.08,3022.56,2904.68,3183.80,599.81,614.77,17.11,0000 0000 0000 0000 000000
2016-01-10 12:37:54,0.08,1.18,0.00,18.18,22.50,26.33,15.09,50.15,1031.76,2053.02,3020.91,2903.48,3182.43,599.76,614.64,17.16,0000 0000 0000 0000 000000
2016-01-10 12:42:55,0.15,1.19,0.00,18.20,22.52,26.34,15.07,50.05,1031.76,2053.00,3018.27,2901.49,3180.22,599.74,614.60,17.21,0000 0000 0000 0000 000000
2016-01-10 12:47:56,0.13,1.20,0.00,18.23,22.54,26.35,15.10,50.31,1031.76,2053.00,3015.62,2899.47,3177.97,600.12,614.90,17.26,0000 0000 0000 0000 000000
2016-01-10 12:52:57,0.08,1.20,0.00,18.25,22.55,26.35,15.03,50.13,1031.76,2053.00,3013.89,2898.24,3176.51,600.17,614.95,17.31,0000 0000 0000 0000 000000
2016-01-10 12:57:59,0.10,1.21,0.00,18.26,22.57,26.35,15.09,50.13,1031.76,2053.00,3012.02,2896.85,3174.95,600.12,614.81,17.36,0000 0000 0000 0000 000000